Terug naar catalogus

FENGYUN 1C DEB

ActiefSSO
NORAD 32128·DEBRIS·🇨🇳 China

Gelanceerd May 10, 1999 vanaf Taiyuan Satellite Launch Center

Loading…

Volgende Passages (komende 24 uur)

TLE

VersSource: Space-Track

Epoch: Sep 11, 2026, 20:39 UTC

1 32128U 99025CRW 26254.86045606  .00000779  00000-0  32092-3 0  9997
2 32128  98.9983 300.4421 0395256 192.9475 166.1304 13.94833752667921

Volg FENGYUN 1C DEB in realtime met AllMySat

Download on the App Store